Regional Weather Roundup
Issued by NWS Little Rock, AR

Home | Current Version | Previous Version | Graphics & Text | Print | Product List | Glossary On
Versions: 1 2 3 4 5 6 7 8 9 10 11 12 13 14 15 16 17 18 19 20 21 22 23 24 25 26 27 28 29 30 31 32 33 34 35 36 37 38 39 40 41 42 43 44 45 46 47 48
000
ASUS44 KLZK 241005
RWRLZK

WEATHER ROUNDUP FOR ARKANSAS
NATIONAL WEATHER SERVICE LITTLE ROCK AR
400 AM CST SAT JAN 24 2015

NOTE: "FAIR" INDICATES FEW OR NO CLOUDS BELOW 12,000 FEET WITH NO
SIGNIFICANT WEATHER AND/OR OBSTRUCTIONS TO VISIBILITY.

ARZ001-003-010-029-241100-
NORTHWEST ARKANSAS

CITY           SKY/WX    TMP DP  RH WIND       PRES   REMARKS
FAYETTEVILLE   CLEAR     22  19  89 S3        30.01F
FORT SMITH     CLEAR     30  25  81 W5        30.06F WCI  25
HARRISON       CLEAR     36  23  59 W7        29.97F
BENTONVILLE    CLEAR     28  19  69 SW6       30.00F WCI  22
ROGERS         CLEAR     31  24  75 SW9       29.99F WCI  23
SILOAM SPGS    CLEAR     28  18  64 SW5       30.02F WCI  23
HIGHFILL       CLEAR     29  22  75 SW8       29.99F WCI  21
$$

ARZ004-005-016-241100-
NORTH CENTRAL ARKANSAS

CITY           SKY/WX    TMP DP  RH WIND       PRES   REMARKS
BATESVILLE     CLEAR     27  21  80 CALM      29.99F
FLIPPIN        CLEAR     25  16  68 CALM      29.96F
MTN HOME       CLEAR     30  27  88 CALM      29.96F
$$

ARZ040-041-241100-
WEST CENTRAL ARKANSAS

CITY           SKY/WX    TMP DP  RH WIND       PRES   REMARKS
MENA           CLEAR     34  28  80 W8        30.06S WCI  27
MOUNT IDA      CLEAR     26  23  88 CALM      30.02F
$$

ARZ009-017-025-026-028-241100-
NORTHEAST ARKANSAS

CITY           SKY/WX    TMP DP  RH WIND       PRES   REMARKS
CORNING        FAIR      28  27  93 SW7       29.98S WCI  21
JONESBORO      CLEAR     28  25  88 W5        30.00S WCI  23
NEWPORT        CLEAR     29  24  81 SW6       30.02F WCI  23
WALNUT RIDGE   CLEAR     27  21  80 SW7       29.97F WCI  19
BLYTHEVILLE    CLEAR     27  26  96 SW7       29.99F FOG     WCI  19
$$

ARZ022-023-033-042-044-241100-
CENTRAL ARKANSAS

CITY           SKY/WX    TMP DP  RH WIND       PRES   REMARKS
LITTLE ROCK    CLEAR     31  26  82 W7        30.06S WCI  24
N LITTLE ROCK    N/A     33  28  80 W5        30.06S WCI  29
JACKSONVILLE   CLEAR     25  22  89 CALM      30.04F
SEARCY         FAIR      23  22  96 SW5       30.04F WCI  17
HOT SPRINGS    CLEAR     30  26  85 NW5       30.06F WCI  25
RUSSELLVILLE   CLEAR     26  24  92 CALM      30.04S
CLINTON        FAIR      21  19  93 CALM      30.04F
$$

ARZ036-241100-
EAST ARKANSAS

CITY           SKY/WX    TMP DP  RH WIND       PRES   REMARKS
WEST MEMPHIS   CLEAR     28  27  96 W3        30.01S
$$

ARZ050-053-066-070-073-241100-
SOUTHWEST ARKANSAS

CITY           SKY/WX    TMP DP  RH WIND       PRES   REMARKS
ARKADELPHIA    FAIR      27  27 100 CALM      30.09F
CAMDEN         FOG       27  25  93 CALM      30.11S VSB<1/4
TEXARKANA      CLEAR     31  27  85 SW5       30.10F WCI  26
EL DORADO      CLEAR     28  27  96 CALM      30.10S
DE QUEEN       CLEAR     26  24  92 CALM      30.08F
$$

ARZ056-057-069-241100-
SOUTHEAST ARKANSAS

CITY           SKY/WX    TMP DP  RH WIND       PRES   REMARKS
PINE BLUFF     CLEAR     31  27  85 W6        30.07S WCI  25
STUTTGART      CLEAR     30  27  86 W8        30.05F WCI  23
MONTICELLO     CLEAR     31  29  92 W3        30.08S

$$





USA.gov is the U.S. government's official web portal to all federal, state and local government web resources and services.